This is the latest recevied weather packets stored in our database for station/object W1QED. If no packets are shown the sender has not sent any weather packets the latest 10 day(s).
| Time | Temp. | Humidity | Pressure | Rain* | Wind** | Luminosity | Snow |
|---|---|---|---|---|---|---|---|
| 1777372514 | 3.89° C | 66% | 1023.3 hPa | 0 mm | - | - | - |
| 1777372217 | 3.89° C | 65% | 1023.2 hPa | 0 mm | - | - | - |
| 1777371913 | 3.89° C | 66% | 1023.3 hPa | 0 mm | - | - | - |
| 1777371612 | 3.33° C | 66% | 1023.4 hPa | 0 mm | - | - | - |
| 1777371313 | 3.33° C | 65% | 1023.3 hPa | 0 mm | - | - | - |
| 1777371013 | 3.89° C | 66% | 1023.2 hPa | 0 mm | - | - | - |
| 1777370711 | 3.89° C | 66% | 1023 hPa | 0 mm | - | - | - |
| 1777370410 | 3.89° C | 67% | 1022.9 hPa | 0 mm | - | - | - |
| 1777370109 | 3.33° C | 68% | 1023 hPa | 0 mm | - | - | - |
| 1777369809 | 3.33° C | 68% | 1023 hPa | 0 mm | - | - | - |
| 1777369508 | 2.78° C | 68% | 1023.2 hPa | 0 mm | - | - | - |
| 1777369208 | 2.78° C | 69% | 1023.2 hPa | 0 mm | - | - | - |
| 1777368906 | 2.78° C | 69% | 1022.9 hPa | 0 mm | - | - | - |
| 1777368605 | 2.78° C | 69% | 1022.9 hPa | 0 mm | - | - | - |
| 1777368304 | 2.22° C | 69% | 1022.9 hPa | 0 mm | - | - | - |
| 1777368002 | 2.78° C | 68% | 1022.9 hPa | 0 mm | - | - | - |
| 1777367701 | 2.78° C | 68% | 1023.1 hPa | 0 mm | - | - | - |
| 1777367460 | 2.78° C | 67% | 1023 hPa | 0 mm | - | - | - |
| 1777367158 | 3.33° C | 66% | 1023.2 hPa | 0 mm | - | - | - |
| 1777366859 | 3.33° C | 66% | 1023.2 hPa | 0 mm | - | - | - |
| 1777366557 | 3.33° C | 67% | 1023.3 hPa | 0 mm | - | - | - |
| 1777366257 | 3.33° C | 67% | 1023.3 hPa | 0 mm | - | - | - |
| 1777365955 | 3.33° C | 68% | 1023.3 hPa | 0 mm | - | - | - |
| 1777365655 | 3.33° C | 67% | 1023.2 hPa | 0 mm | - | - | - |
| 1777365353 | 3.33° C | 66% | 1023.1 hPa | 0 mm | - | - | - |
* Rain latest hour (hover to see other rain measurements)
** Current wind speed in m/s (hover to see current wind gust speed)